Tracking 19181 objects as of 17-Jun-2018
HD Live streaming from Space Station
objects crossing your sky now

FENGYUN 1C DEB

Track FENGYUN 1C DEB now!
10-day predictions


NORAD ID: 37714
Int'l Code: 1999-025EMF
Perigee: 813.1 km
Apogee: 900.6 km
Inclination: 99.0 °
Period: 101.9 minutes
Semi major axis: 7227 km
RCS: 0.001 m2 (small)
Launch date: May 10, 1999
Source: People's Republic of China (PRC)
Launch site: Taiyaun Space Center, China (TSC)

Note: This is SATELLITE DEBRIS
aabbcc
Your satellite tracking list
Your tracking list is empty




NASA's NSSDC Master Catalog

Two Line Element Set (TLE):
1 37714U 99025EMF 18168.14983698  .00000740  00000-0  41542-3 0  9999
2 37714  98.9713 233.0786 0060578 328.5729  31.1829 14.12824387500742
Source of the keplerian elements: AFSPC